#datetime,building,power
2021-12-08T00:00:00,pth,2.40
2021-12-08T00:01:00,pth,4.80
2021-12-08T00:03:00,pth,4.80
2021-12-08T00:04:00,pth,2.40
2021-12-08T00:06:00,pth,4.80
2021-12-08T00:08:00,pth,5.98
2021-12-08T00:09:00,pth,2.40
2021-12-08T00:10:00,pth,2.40
2021-12-08T00:12:00,pth,4.80
2021-12-08T00:13:00,pth,2.40
2021-12-08T00:15:00,pth,4.80
2021-12-08T00:17:00,pth,4.80
2021-12-08T00:18:00,pth,2.40
2021-12-08T00:20:00,pth,4.80
2021-12-08T00:22:00,pth,3.57
2021-12-08T00:24:00,pth,4.80
2021-12-08T00:26:00,pth,4.80
2021-12-08T00:28:00,pth,3.57
2021-12-08T00:30:00,pth,4.80
2021-12-08T00:32:00,pth,3.63
2021-12-08T00:33:00,pth,2.40
2021-12-08T00:34:00,pth,1.17
2021-12-08T00:35:00,pth,2.40
2021-12-08T00:37:00,pth,4.80
2021-12-08T00:39:00,pth,4.80
2021-12-08T00:40:00,pth,2.40
2021-12-08T00:42:00,pth,3.57
2021-12-08T00:44:00,pth,4.80
2021-12-08T00:46:00,pth,3.63
2021-12-08T00:47:00,pth,2.40
2021-12-08T00:49:00,pth,3.57
2021-12-08T00:51:00,pth,3.63
2021-12-08T00:52:00,pth,2.40
2021-12-08T00:54:00,pth,3.57
2021-12-08T00:56:00,pth,4.80
2021-12-08T00:57:00,pth,2.40
2021-12-08T00:59:00,pth,3.57
2021-12-08T01:01:00,pth,3.63
2021-12-08T01:03:00,pth,4.80
2021-12-08T01:05:00,pth,3.57
2021-12-08T01:07:00,pth,3.63
2021-12-08T01:08:00,pth,2.40
2021-12-08T01:09:00,pth,2.40
2021-12-08T01:10:00,pth,1.17
2021-12-08T01:11:00,pth,2.40
2021-12-08T01:13:00,pth,3.57
2021-12-08T01:15:00,pth,4.80
2021-12-08T01:16:00,pth,1.23
2021-12-08T01:18:00,pth,4.80
2021-12-08T01:20:00,pth,4.80
2021-12-08T01:21:00,pth,2.40
2021-12-08T01:23:00,pth,3.57
2021-12-08T01:24:00,pth,2.40
2021-12-08T01:25:00,pth,2.40
2021-12-08T01:27:00,pth,3.57
2021-12-08T01:28:00,pth,2.40
2021-12-08T01:30:00,pth,3.63
2021-12-08T01:32:00,pth,4.80
2021-12-08T01:34:00,pth,4.80
2021-12-08T01:36:00,pth,3.57
2021-12-08T01:38:00,pth,4.80
2021-12-08T01:40:00,pth,3.57
2021-12-08T01:41:00,pth,2.40
2021-12-08T01:43:00,pth,3.63
2021-12-08T01:44:00,pth,2.40
2021-12-08T01:46:00,pth,3.57
2021-12-08T01:47:00,pth,2.40
2021-12-08T01:49:00,pth,3.63
2021-12-08T01:50:00,pth,2.40
2021-12-08T01:52:00,pth,3.57
2021-12-08T01:54:00,pth,3.57
2021-12-08T01:55:00,pth,2.40
2021-12-08T01:57:00,pth,3.63
2021-12-08T01:59:00,pth,3.57
2021-12-08T02:00:00,pth,2.40
2021-12-08T02:02:00,pth,3.63
2021-12-08T02:03:00,pth,2.40
2021-12-08T02:05:00,pth,3.57
2021-12-08T02:07:00,pth,3.63
2021-12-08T02:09:00,pth,4.75
2021-12-08T02:11:00,pth,3.63
2021-12-08T02:13:00,pth,3.57
2021-12-08T02:15:00,pth,3.63
2021-12-08T02:16:00,pth,2.40
2021-12-08T02:18:00,pth,3.57
2021-12-08T02:20:00,pth,3.63
2021-12-08T02:22:00,pth,4.80
2021-12-08T02:23:00,pth,1.17
2021-12-08T02:25:00,pth,4.80
2021-12-08T02:26:00,pth,1.17
2021-12-08T02:28:00,pth,3.63
2021-12-08T02:30:00,pth,4.80
2021-12-08T02:31:00,pth,1.17
2021-12-08T02:33:00,pth,4.80
2021-12-08T02:34:00,pth,2.40
2021-12-08T02:36:00,pth,3.63
2021-12-08T02:38:00,pth,4.80
2021-12-08T02:40:00,pth,3.57
2021-12-08T02:41:00,pth,2.40
2021-12-08T02:43:00,pth,3.57
2021-12-08T02:45:00,pth,3.63
2021-12-08T02:46:00,pth,2.40
2021-12-08T02:48:00,pth,3.57
2021-12-08T02:50:00,pth,4.80
2021-12-08T02:52:00,pth,3.63
2021-12-08T02:54:00,pth,4.75
2021-12-08T02:55:00,pth,1.23
2021-12-08T02:57:00,pth,3.57
2021-12-08T02:58:00,pth,2.40
2021-12-08T03:00:00,pth,3.63
2021-12-08T03:01:00,pth,2.40
2021-12-08T03:03:00,pth,3.57
2021-12-08T03:04:00,pth,2.40
2021-12-08T03:06:00,pth,3.63
2021-12-08T03:08:00,pth,3.57
2021-12-08T03:10:00,pth,3.57
2021-12-08T03:12:00,pth,4.80
2021-12-08T03:14:00,pth,3.63
2021-12-08T03:15:00,pth,2.40
2021-12-08T03:17:00,pth,3.57
2021-12-08T03:18:00,pth,1.23
2021-12-08T03:19:00,pth,2.40
2021-12-08T03:21:00,pth,3.57
2021-12-08T03:23:00,pth,3.63
2021-12-08T03:24:00,pth,2.40
2021-12-08T03:26:00,pth,3.57
2021-12-08T03:27:00,pth,2.40
2021-12-08T03:29:00,pth,3.57
2021-12-08T03:30:00,pth,2.40
2021-12-08T03:32:00,pth,3.63
2021-12-08T03:34:00,pth,3.57
2021-12-08T03:36:00,pth,3.63
2021-12-08T03:37:00,pth,2.40
2021-12-08T03:38:00,pth,2.40
2021-12-08T03:40:00,pth,3.57
2021-12-08T03:41:00,pth,2.40
2021-12-08T03:42:00,pth,1.17
2021-12-08T03:44:00,pth,4.80
2021-12-08T03:46:00,pth,3.63
2021-12-08T03:48:00,pth,3.57
2021-12-08T03:49:00,pth,2.40
2021-12-08T03:51:00,pth,3.63
2021-12-08T03:53:00,pth,3.57
2021-12-08T03:55:00,pth,4.80
2021-12-08T03:57:00,pth,3.57
2021-12-08T03:59:00,pth,3.63
2021-12-08T04:00:00,pth,2.40
2021-12-08T04:02:00,pth,3.57
2021-12-08T04:03:00,pth,1.23
2021-12-08T04:05:00,pth,4.80
2021-12-08T04:07:00,pth,3.57
2021-12-08T04:09:00,pth,3.63
2021-12-08T04:10:00,pth,1.17
2021-12-08T04:12:00,pth,4.80
2021-12-08T04:13:00,pth,1.17
2021-12-08T04:14:00,pth,2.40
2021-12-08T04:15:00,pth,1.23
2021-12-08T04:17:00,pth,4.80
2021-12-08T04:19:00,pth,3.57
2021-12-08T04:21:00,pth,3.63
2021-12-08T04:22:00,pth,2.40
2021-12-08T04:24:00,pth,3.57
2021-12-08T04:26:00,pth,3.63
2021-12-08T04:28:00,pth,3.57
2021-12-08T04:29:00,pth,2.40
2021-12-08T04:31:00,pth,3.57
2021-12-08T04:32:00,pth,1.23
2021-12-08T04:33:00,pth,2.40
2021-12-08T04:35:00,pth,3.57
2021-12-08T04:36:00,pth,2.40
2021-12-08T04:38:00,pth,3.63
2021-12-08T04:40:00,pth,4.80
2021-12-08T04:42:00,pth,3.57
2021-12-08T04:44:00,pth,4.80
2021-12-08T04:45:00,pth,1.17
2021-12-08T04:47:00,pth,4.80
2021-12-08T04:49:00,pth,3.63
2021-12-08T04:51:00,pth,4.80
2021-12-08T04:52:00,pth,1.17
2021-12-08T04:54:00,pth,4.80
2021-12-08T04:56:00,pth,3.63
2021-12-08T04:58:00,pth,4.75
2021-12-08T05:00:00,pth,4.80
2021-12-08T05:01:00,pth,1.23
2021-12-08T05:03:00,pth,3.57
2021-12-08T05:05:00,pth,3.63
2021-12-08T05:07:00,pth,4.80
2021-12-08T05:09:00,pth,3.57
2021-12-08T05:10:00,pth,2.40
2021-12-08T05:12:00,pth,3.57
2021-12-08T05:13:00,pth,3.63
2021-12-08T05:15:00,pth,3.57
2021-12-08T05:17:00,pth,3.63
2021-12-08T05:19:00,pth,3.57
2021-12-08T05:20:00,pth,2.40
2021-12-08T05:22:00,pth,3.63
2021-12-08T05:24:00,pth,3.57
2021-12-08T05:26:00,pth,3.63
2021-12-08T05:27:00,pth,2.34
2021-12-08T05:29:00,pth,3.63
2021-12-08T05:31:00,pth,4.80
2021-12-08T05:33:00,pth,3.57
2021-12-08T05:35:00,pth,3.63
2021-12-08T05:37:00,pth,3.57
2021-12-08T05:38:00,pth,2.40
2021-12-08T05:40:00,pth,3.63
2021-12-08T05:42:00,pth,3.57
2021-12-08T05:44:00,pth,4.80
2021-12-08T05:45:00,pth,2.40
2021-12-08T05:47:00,pth,4.80
2021-12-08T05:48:00,pth,1.17
2021-12-08T05:50:00,pth,4.80
2021-12-08T05:52:00,pth,3.63
2021-12-08T05:54:00,pth,4.80
2021-12-08T05:57:00,pth,4.75
2021-12-08T05:58:00,pth,3.63
2021-12-08T05:59:00,pth,2.40
2021-12-08T06:01:00,pth,3.57
2021-12-08T06:02:00,pth,1.23
2021-12-08T06:04:00,pth,4.80
2021-12-08T06:05:00,pth,1.17
2021-12-08T06:07:00,pth,4.80
2021-12-08T06:09:00,pth,3.63
2021-12-08T06:11:00,pth,3.57
2021-12-08T06:13:00,pth,3.57
2021-12-08T06:14:00,pth,2.40
2021-12-08T06:16:00,pth,3.63
2021-12-08T06:18:00,pth,3.57
2021-12-08T06:20:00,pth,3.63
2021-12-08T06:22:00,pth,3.57
2021-12-08T06:23:00,pth,2.40
2021-12-08T06:24:00,pth,3.63
2021-12-08T06:26:00,pth,4.75
2021-12-08T06:29:00,pth,3.63
2021-12-08T06:31:00,pth,5.98
2021-12-08T06:33:00,pth,1.23
2021-12-08T06:35:00,pth,4.80
2021-12-08T06:37:00,pth,3.57
2021-12-08T06:38:00,pth,1.23
2021-12-08T06:40:00,pth,7.21
2021-12-08T06:43:00,pth,3.57
2021-12-08T06:45:00,pth,5.98
2021-12-08T06:47:00,pth,3.63
2021-12-08T06:50:00,pth,4.80
2021-12-08T06:52:00,pth,3.57
2021-12-08T06:54:00,pth,3.63
2021-12-08T06:55:00,pth,2.40
2021-12-08T06:57:00,pth,3.57
2021-12-08T06:58:00,pth,2.40
2021-12-08T07:00:00,pth,3.57
2021-12-08T07:02:00,pth,3.63
2021-12-08T07:04:00,pth,4.80
2021-12-08T07:05:00,pth,2.40
2021-12-08T07:07:00,pth,3.57
2021-12-08T07:09:00,pth,3.63
2021-12-08T07:10:00,pth,2.40
2021-12-08T07:12:00,pth,3.57
2021-12-08T07:14:00,pth,4.80
2021-12-08T07:15:00,pth,2.40
2021-12-08T07:17:00,pth,5.98
2021-12-08T07:19:00,pth,4.80
2021-12-08T07:21:00,pth,4.80
2021-12-08T07:23:00,pth,4.80
2021-12-08T07:24:00,pth,2.40
2021-12-08T07:26:00,pth,4.80
2021-12-08T07:28:00,pth,3.57
2021-12-08T07:29:00,pth,2.40
2021-12-08T07:31:00,pth,3.63
2021-12-08T07:32:00,pth,2.40
2021-12-08T07:34:00,pth,4.80
2021-12-08T07:35:00,pth,1.17
2021-12-08T07:37:00,pth,4.80
2021-12-08T07:38:00,pth,1.23
2021-12-08T07:40:00,pth,3.57
2021-12-08T07:41:00,pth,2.40
2021-12-08T07:42:00,pth,2.40
2021-12-08T07:44:00,pth,3.57
2021-12-08T07:45:00,pth,2.40
2021-12-08T07:47:00,pth,4.80
2021-12-08T07:48:00,pth,2.40
2021-12-08T07:50:00,pth,4.80
2021-12-08T07:51:00,pth,2.40
2021-12-08T07:52:00,pth,1.23
2021-12-08T07:54:00,pth,4.75
2021-12-08T07:55:00,pth,2.40
2021-12-08T07:56:00,pth,1.23
2021-12-08T07:58:00,pth,4.80
2021-12-08T08:00:00,pth,3.57
2021-12-08T08:01:00,pth,2.40
2021-12-08T08:03:00,pth,3.63
2021-12-08T08:05:00,pth,3.57
2021-12-08T08:07:00,pth,3.63
2021-12-08T08:09:00,pth,4.75
2021-12-08T08:11:00,pth,3.63
2021-12-08T08:13:00,pth,4.80
2021-12-08T08:15:00,pth,3.57
2021-12-08T08:16:00,pth,2.40
2021-12-08T08:17:00,pth,1.23
2021-12-08T08:19:00,pth,3.57
2021-12-08T08:20:00,pth,2.40
2021-12-08T08:22:00,pth,3.63
2021-12-08T08:23:00,pth,2.34
2021-12-08T08:25:00,pth,3.63
2021-12-08T08:26:00,pth,1.17
2021-12-08T08:28:00,pth,3.63
2021-12-08T08:30:00,pth,3.57
2021-12-08T08:31:00,pth,2.40
2021-12-08T08:33:00,pth,3.63
2021-12-08T08:34:00,pth,1.17
2021-12-08T08:36:00,pth,3.63
2021-12-08T08:38:00,pth,4.80
2021-12-08T08:39:00,pth,1.17
2021-12-08T08:41:00,pth,4.80
2021-12-08T08:43:00,pth,4.80
2021-12-08T08:44:00,pth,1.17
2021-12-08T08:46:00,pth,4.80
2021-12-08T08:48:00,pth,4.80
2021-12-08T08:50:00,pth,3.63
2021-12-08T08:51:00,pth,2.40
2021-12-08T08:52:00,pth,2.40
2021-12-08T08:54:00,pth,3.57
2021-12-08T08:55:00,pth,2.40
2021-12-08T08:56:00,pth,2.40
2021-12-08T08:58:00,pth,4.80
2021-12-08T09:00:00,pth,3.57
2021-12-08T09:01:00,pth,2.40
2021-12-08T09:03:00,pth,3.63
2021-12-08T09:05:00,pth,4.80
2021-12-08T09:07:00,pth,3.57
2021-12-08T09:08:00,pth,2.40
2021-12-08T09:10:00,pth,3.57
2021-12-08T09:12:00,pth,3.63
2021-12-08T09:14:00,pth,4.80
2021-12-08T09:16:00,pth,3.57
2021-12-08T09:18:00,pth,4.80
2021-12-08T09:20:00,pth,4.80
2021-12-08T09:22:00,pth,3.57
2021-12-08T09:24:00,pth,4.80
2021-12-08T09:26:00,pth,3.63
2021-12-08T09:27:00,pth,2.40
2021-12-08T09:28:00,pth,2.40
2021-12-08T09:30:00,pth,3.57
2021-12-08T09:31:00,pth,2.40
2021-12-08T09:33:00,pth,4.80
2021-12-08T09:35:00,pth,3.63
2021-12-08T09:37:00,pth,4.75
2021-12-08T09:39:00,pth,4.80
2021-12-08T09:41:00,pth,3.63
2021-12-08T09:43:00,pth,4.80
2021-12-08T09:45:00,pth,4.80
2021-12-08T09:46:00,pth,2.40
2021-12-08T09:48:00,pth,5.98
2021-12-08T09:49:00,pth,2.40
2021-12-08T09:50:00,pth,3.57
2021-12-08T09:52:00,pth,4.80
2021-12-08T09:54:00,pth,6.04
2021-12-08T09:56:00,pth,4.80
2021-12-08T09:58:00,pth,4.80
2021-12-08T09:59:00,pth,2.40
2021-12-08T10:01:00,pth,3.57
2021-12-08T10:02:00,pth,2.40
2021-12-08T10:04:00,pth,4.80
2021-12-08T10:05:00,pth,2.40
2021-12-08T10:07:00,pth,3.57
2021-12-08T10:09:00,pth,4.80
2021-12-08T10:10:00,pth,1.23
2021-12-08T10:12:00,pth,4.80
2021-12-08T10:14:00,pth,3.57
2021-12-08T10:15:00,pth,2.40
2021-12-08T10:17:00,pth,4.80
2021-12-08T10:19:00,pth,3.57
2021-12-08T10:21:00,pth,3.63
2021-12-08T10:23:00,pth,4.80
2021-12-08T10:25:00,pth,3.57
2021-12-08T10:27:00,pth,3.63
2021-12-08T10:29:00,pth,4.75
2021-12-08T10:31:00,pth,4.80
2021-12-08T10:33:00,pth,3.63
2021-12-08T10:34:00,pth,1.17
2021-12-08T10:36:00,pth,4.80
2021-12-08T10:38:00,pth,3.63
2021-12-08T10:40:00,pth,3.57
2021-12-08T10:42:00,pth,3.63
2021-12-08T10:44:00,pth,4.75
2021-12-08T10:46:00,pth,3.63
2021-12-08T10:48:00,pth,3.57
2021-12-08T10:50:00,pth,4.80
2021-12-08T10:52:00,pth,3.63
2021-12-08T10:54:00,pth,3.57
2021-12-08T10:56:00,pth,4.80
2021-12-08T10:58:00,pth,3.63
2021-12-08T11:00:00,pth,4.75
2021-12-08T11:01:00,pth,2.40
2021-12-08T11:02:00,pth,2.40
2021-12-08T11:04:00,pth,7.21
2021-12-08T11:06:00,pth,6.04
2021-12-08T11:07:00,pth,3.57
2021-12-08T11:09:00,pth,5.98
2021-12-08T11:11:00,pth,3.63
2021-12-08T11:13:00,pth,4.80
2021-12-08T11:14:00,pth,1.17
2021-12-08T11:16:00,pth,4.80
2021-12-08T11:18:00,pth,3.63
2021-12-08T11:20:00,pth,3.57
2021-12-08T11:22:00,pth,3.63
2021-12-08T11:24:00,pth,3.57
2021-12-08T11:25:00,pth,2.40
2021-12-08T11:26:00,pth,2.40
2021-12-08T11:28:00,pth,4.80
2021-12-08T11:29:00,pth,2.40
2021-12-08T11:31:00,pth,3.57
2021-12-08T11:32:00,pth,2.40
2021-12-08T11:33:00,pth,2.40
2021-12-08T11:35:00,pth,4.80
2021-12-08T11:36:00,pth,1.23
2021-12-08T11:38:00,pth,4.75
2021-12-08T11:40:00,pth,3.63
2021-12-08T11:41:00,pth,2.40
2021-12-08T11:42:00,pth,1.17
2021-12-08T11:44:00,pth,3.63
2021-12-08T11:46:00,pth,4.80
2021-12-08T11:48:00,pth,3.57
2021-12-08T11:50:00,pth,3.63
2021-12-08T11:52:00,pth,4.80
2021-12-08T11:54:00,pth,3.57
2021-12-08T11:56:00,pth,3.57
2021-12-08T11:58:00,pth,4.80
2021-12-08T12:00:00,pth,3.63
2021-12-08T12:01:00,pth,2.40
2021-12-08T12:02:00,pth,2.40
2021-12-08T12:04:00,pth,3.57
2021-12-08T12:05:00,pth,2.40
2021-12-08T12:07:00,pth,3.63
2021-12-08T12:08:00,pth,2.34
2021-12-08T12:09:00,pth,2.40
2021-12-08T12:11:00,pth,3.63
2021-12-08T12:13:00,pth,3.57
2021-12-08T12:14:00,pth,2.40
2021-12-08T12:15:00,pth,1.23
2021-12-08T12:16:00,pth,2.40
2021-12-08T12:18:00,pth,3.57
2021-12-08T12:20:00,pth,3.63
2021-12-08T12:21:00,pth,2.40
2021-12-08T12:22:00,pth,1.17
2021-12-08T12:24:00,pth,3.57
2021-12-08T12:26:00,pth,3.63
2021-12-08T12:27:00,pth,1.17
2021-12-08T12:29:00,pth,4.80
2021-12-08T12:31:00,pth,3.63
2021-12-08T12:32:00,pth,1.17
2021-12-08T12:34:00,pth,3.63
2021-12-08T12:36:00,pth,3.57
2021-12-08T12:37:00,pth,2.40
2021-12-08T12:39:00,pth,3.63
2021-12-08T12:41:00,pth,3.57
2021-12-08T12:43:00,pth,4.80
2021-12-08T12:45:00,pth,3.57
2021-12-08T12:46:00,pth,1.23
2021-12-08T12:48:00,pth,3.57
2021-12-08T12:50:00,pth,3.63
2021-12-08T12:51:00,pth,2.40
2021-12-08T12:53:00,pth,3.57
2021-12-08T12:55:00,pth,3.63
2021-12-08T12:56:00,pth,1.17
2021-12-08T12:57:00,pth,2.40
2021-12-08T12:59:00,pth,3.57
2021-12-08T13:01:00,pth,2.40
2021-12-08T13:03:00,pth,3.63
2021-12-08T13:05:00,pth,3.57
2021-12-08T13:06:00,pth,2.40
2021-12-08T13:07:00,pth,1.23
2021-12-08T13:09:00,pth,3.57
2021-12-08T13:10:00,pth,2.40
2021-12-08T13:12:00,pth,3.63
2021-12-08T13:14:00,pth,3.57
2021-12-08T13:15:00,pth,1.17
2021-12-08T13:17:00,pth,4.80
2021-12-08T13:18:00,pth,1.23
2021-12-08T13:19:00,pth,2.40
2021-12-08T13:21:00,pth,4.80
2021-12-08T13:22:00,pth,1.17
2021-12-08T13:23:00,pth,2.40
2021-12-08T13:25:00,pth,3.63
2021-12-08T13:27:00,pth,3.57
2021-12-08T13:28:00,pth,1.23
2021-12-08T13:30:00,pth,3.57
2021-12-08T13:32:00,pth,3.57
2021-12-08T13:34:00,pth,4.80
2021-12-08T13:36:00,pth,3.63
2021-12-08T13:37:00,pth,2.40
2021-12-08T13:39:00,pth,3.57
2021-12-08T13:41:00,pth,3.63
2021-12-08T13:43:00,pth,3.57
2021-12-08T13:45:00,pth,3.57
2021-12-08T13:47:00,pth,3.63
2021-12-08T13:48:00,pth,2.40
2021-12-08T13:50:00,pth,3.57
2021-12-08T13:52:00,pth,3.63
2021-12-08T13:53:00,pth,2.40
2021-12-08T13:55:00,pth,3.57
2021-12-08T13:56:00,pth,2.40
2021-12-08T13:58:00,pth,3.63
2021-12-08T14:00:00,pth,3.57
2021-12-08T14:02:00,pth,3.57
2021-12-08T14:03:00,pth,2.40
2021-12-08T14:05:00,pth,7.21
2021-12-08T14:07:00,pth,6.04
2021-12-08T14:09:00,pth,4.80
2021-12-08T14:11:00,pth,4.80
2021-12-08T14:13:00,pth,3.57
2021-12-08T14:15:00,pth,3.57
2021-12-08T14:16:00,pth,1.23
2021-12-08T14:18:00,pth,4.80
2021-12-08T14:20:00,pth,3.57
2021-12-08T14:21:00,pth,2.40
2021-12-08T14:23:00,pth,3.63
2021-12-08T14:25:00,pth,5.98
2021-12-08T14:28:00,pth,3.57
2021-12-08T14:29:00,pth,3.63
2021-12-08T14:30:00,pth,2.40
2021-12-08T14:33:00,pth,2.40
2021-12-08T14:34:00,pth,3.57
2021-12-08T14:37:00,pth,3.63
2021-12-08T14:39:00,pth,5.98
2021-12-08T14:41:00,pth,3.63
2021-12-08T14:44:00,pth,3.57
2021-12-08T14:46:00,pth,4.80
2021-12-08T14:47:00,pth,2.40
2021-12-08T14:49:00,pth,5.98
2021-12-08T14:50:00,pth,3.63
2021-12-08T14:51:00,pth,1.17
2021-12-08T14:54:00,pth,3.63
2021-12-08T14:55:00,pth,3.57
2021-12-08T14:58:00,pth,3.63
2021-12-08T15:00:00,pth,3.57
2021-12-08T15:01:00,pth,2.40
2021-12-08T15:04:00,pth,3.57
2021-12-08T15:05:00,pth,4.80
2021-12-08T15:08:00,pth,3.63
2021-12-08T15:09:00,pth,2.40
2021-12-08T15:11:00,pth,3.57
2021-12-08T15:14:00,pth,3.63
2021-12-08T15:15:00,pth,2.40
2021-12-08T15:16:00,pth,2.34
2021-12-08T15:18:00,pth,3.63
2021-12-08T15:21:00,pth,3.57
2021-12-08T15:22:00,pth,2.40
2021-12-08T15:24:00,pth,3.63
2021-12-08T15:26:00,pth,2.40
2021-12-08T15:27:00,pth,2.40
2021-12-08T15:28:00,pth,3.57
2021-12-08T15:30:00,pth,2.40
2021-12-08T15:32:00,pth,2.40
2021-12-08T15:33:00,pth,1.23
2021-12-08T15:34:00,pth,3.57
2021-12-08T15:37:00,pth,3.57
2021-12-08T15:39:00,pth,3.63
2021-12-08T15:41:00,pth,3.57
2021-12-08T15:42:00,pth,3.63
2021-12-08T15:44:00,pth,3.57
2021-12-08T15:46:00,pth,3.63
2021-12-08T15:48:00,pth,3.57
2021-12-08T15:50:00,pth,2.40
2021-12-08T15:52:00,pth,3.57
2021-12-08T15:53:00,pth,4.80
2021-12-08T15:55:00,pth,2.40
2021-12-08T15:56:00,pth,4.80
2021-12-08T15:57:00,pth,2.40
2021-12-08T15:59:00,pth,4.80
2021-12-08T16:01:00,pth,3.63
2021-12-08T16:02:00,pth,2.40
2021-12-08T16:05:00,pth,3.57
2021-12-08T16:06:00,pth,2.40
2021-12-08T16:07:00,pth,3.57
2021-12-08T16:09:00,pth,3.63
2021-12-08T16:11:00,pth,2.40
2021-12-08T16:13:00,pth,8.38
2021-12-08T16:15:00,pth,4.80
2021-12-08T16:18:00,pth,4.80
2021-12-08T16:20:00,pth,3.57
2021-12-08T16:22:00,pth,3.63
2021-12-08T16:23:00,pth,4.80
2021-12-08T16:24:00,pth,2.40
2021-12-08T16:26:00,pth,2.40
2021-12-08T16:27:00,pth,4.80
2021-12-08T16:30:00,pth,4.80
2021-12-08T16:31:00,pth,2.34
2021-12-08T16:32:00,pth,4.80
2021-12-08T16:33:00,pth,2.40
2021-12-08T16:36:00,pth,4.80
2021-12-08T16:38:00,pth,4.80
2021-12-08T16:39:00,pth,2.40
2021-12-08T16:40:00,pth,4.80
2021-12-08T16:43:00,pth,4.80
2021-12-08T16:44:00,pth,4.80
2021-12-08T16:47:00,pth,4.80
2021-12-08T16:49:00,pth,4.80
2021-12-08T16:50:00,pth,4.80
2021-12-08T16:52:00,pth,4.80
2021-12-08T16:54:00,pth,4.80
2021-12-08T16:56:00,pth,4.75
2021-12-08T16:57:00,pth,1.23
2021-12-08T16:58:00,pth,2.40
2021-12-08T17:01:00,pth,5.98
2021-12-08T17:03:00,pth,4.80
2021-12-08T17:04:00,pth,2.40
2021-12-08T17:05:00,pth,4.80
2021-12-08T17:07:00,pth,4.80
2021-12-08T17:09:00,pth,2.40
2021-12-08T17:10:00,pth,4.80
2021-12-08T17:12:00,pth,4.80
2021-12-08T17:13:00,pth,2.40
2021-12-08T17:16:00,pth,7.21
2021-12-08T17:18:00,pth,2.40
2021-12-08T17:20:00,pth,4.80
2021-12-08T17:21:00,pth,4.75
2021-12-08T17:23:00,pth,2.40
2021-12-08T17:24:00,pth,4.80
2021-12-08T17:26:00,pth,2.40
2021-12-08T17:27:00,pth,4.80
2021-12-08T17:29:00,pth,4.80
2021-12-08T17:32:00,pth,4.80
2021-12-08T17:33:00,pth,4.80
2021-12-08T17:36:00,pth,5.98
2021-12-08T17:37:00,pth,4.80
2021-12-08T17:39:00,pth,4.80
2021-12-08T17:41:00,pth,4.80
2021-12-08T17:43:00,pth,4.80
2021-12-08T17:45:00,pth,2.40
2021-12-08T17:47:00,pth,4.80
2021-12-08T17:48:00,pth,5.98
2021-12-08T17:51:00,pth,4.80
2021-12-08T17:53:00,pth,3.63
2021-12-08T17:55:00,pth,4.80
2021-12-08T17:57:00,pth,4.80
2021-12-08T17:58:00,pth,4.75
2021-12-08T18:00:00,pth,3.63
2021-12-08T18:03:00,pth,4.80
2021-12-08T18:04:00,pth,4.80
2021-12-08T18:05:00,pth,2.40
2021-12-08T18:08:00,pth,4.80
2021-12-08T18:09:00,pth,4.80
2021-12-08T18:11:00,pth,5.98
2021-12-08T18:12:00,pth,2.40
2021-12-08T18:15:00,pth,4.80
2021-12-08T18:16:00,pth,2.40
2021-12-08T18:17:00,pth,4.80
2021-12-08T18:20:00,pth,4.80
2021-12-08T18:21:00,pth,4.80
2021-12-08T18:23:00,pth,4.75
2021-12-08T18:26:00,pth,4.80
2021-12-08T18:27:00,pth,4.80
2021-12-08T18:29:00,pth,4.80
2021-12-08T18:31:00,pth,4.80
2021-12-08T18:32:00,pth,2.40
2021-12-08T18:35:00,pth,4.80
2021-12-08T18:37:00,pth,4.80
2021-12-08T18:39:00,pth,8.38
2021-12-08T18:40:00,pth,3.63
2021-12-08T18:41:00,pth,8.38
2021-12-08T18:42:00,pth,3.63
2021-12-08T18:44:00,pth,2.34
2021-12-08T18:45:00,pth,2.40
2021-12-08T18:47:00,pth,7.21
2021-12-08T18:49:00,pth,4.80
2021-12-08T18:52:00,pth,8.44
2021-12-08T18:55:00,pth,4.80
2021-12-08T18:56:00,pth,4.75
2021-12-08T18:58:00,pth,4.80
2021-12-08T19:00:00,pth,1.23
2021-12-08T19:02:00,pth,7.21
2021-12-08T19:05:00,pth,3.57
2021-12-08T19:06:00,pth,4.80
2021-12-08T19:07:00,pth,2.40
2021-12-08T19:08:00,pth,2.40
2021-12-08T19:11:00,pth,4.80
2021-12-08T19:12:00,pth,1.17
2021-12-08T19:13:00,pth,4.80
2021-12-08T19:14:00,pth,2.40
2021-12-08T19:17:00,pth,3.63
2021-12-08T19:18:00,pth,4.80
2021-12-08T19:21:00,pth,4.80
2021-12-08T19:23:00,pth,7.15
2021-12-08T19:24:00,pth,2.40
2021-12-08T19:26:00,pth,3.63
2021-12-08T19:29:00,pth,4.80
2021-12-08T19:31:00,pth,7.21
2021-12-08T19:33:00,pth,4.80
2021-12-08T19:34:00,pth,2.40
2021-12-08T19:36:00,pth,4.75
2021-12-08T19:37:00,pth,2.40
2021-12-08T19:40:00,pth,6.04
2021-12-08T19:43:00,pth,4.80
2021-12-08T19:44:00,pth,3.57
2021-12-08T19:45:00,pth,2.40
2021-12-08T19:47:00,pth,4.80
2021-12-08T19:48:00,pth,2.40
2021-12-08T19:51:00,pth,3.57
2021-12-08T19:52:00,pth,2.40
2021-12-08T19:53:00,pth,4.80
2021-12-08T19:56:00,pth,3.63
2021-12-08T19:57:00,pth,4.80
2021-12-08T19:59:00,pth,4.80
2021-12-08T20:02:00,pth,5.98
2021-12-08T20:03:00,pth,4.80
2021-12-08T20:05:00,pth,4.80
2021-12-08T20:07:00,pth,4.80
2021-12-08T20:09:00,pth,2.40
2021-12-08T20:10:00,pth,4.80
2021-12-08T20:12:00,pth,4.80
2021-12-08T20:14:00,pth,4.75
2021-12-08T20:17:00,pth,4.80
2021-12-08T20:18:00,pth,4.80
2021-12-08T20:20:00,pth,3.63
2021-12-08T20:22:00,pth,4.80
2021-12-08T20:25:00,pth,4.80
2021-12-08T20:26:00,pth,2.40
2021-12-08T20:27:00,pth,4.75
2021-12-08T20:29:00,pth,3.63
2021-12-08T20:30:00,pth,3.57
2021-12-08T20:32:00,pth,6.04
2021-12-08T20:34:00,pth,3.57
2021-12-08T20:35:00,pth,3.63
2021-12-08T20:37:00,pth,2.40
2021-12-08T20:38:00,pth,4.80
2021-12-08T20:41:00,pth,4.75
2021-12-08T20:43:00,pth,7.21
2021-12-08T20:45:00,pth,4.80
2021-12-08T20:48:00,pth,6.04
2021-12-08T20:49:00,pth,2.40
2021-12-08T20:50:00,pth,4.80
2021-12-08T20:53:00,pth,5.98
2021-12-08T20:54:00,pth,5.98
2021-12-08T20:57:00,pth,8.44
2021-12-08T20:59:00,pth,5.98
2021-12-08T21:02:00,pth,9.61
2021-12-08T21:04:00,pth,5.98
2021-12-08T21:05:00,pth,2.40
2021-12-08T21:08:00,pth,4.80
2021-12-08T21:09:00,pth,2.40
2021-12-08T21:10:00,pth,4.80
2021-12-08T21:12:00,pth,5.98
2021-12-08T21:14:00,pth,4.80
2021-12-08T21:16:00,pth,4.80
2021-12-08T21:19:00,pth,4.80
2021-12-08T21:20:00,pth,4.80
2021-12-08T21:22:00,pth,4.80
2021-12-08T21:25:00,pth,7.21
2021-12-08T21:27:00,pth,2.40
2021-12-08T21:29:00,pth,4.80
2021-12-08T21:31:00,pth,14.41
2021-12-08T21:32:00,pth,16.76
2021-12-08T21:34:00,pth,8.44
2021-12-08T21:36:00,pth,15.59
2021-12-08T21:37:00,pth,15.59
2021-12-08T21:38:00,pth,8.44
2021-12-08T21:40:00,pth,15.59
2021-12-08T21:42:00,pth,16.76
2021-12-08T21:45:00,pth,15.64
2021-12-08T21:46:00,pth,16.76
2021-12-08T21:48:00,pth,7.21
2021-12-08T21:49:00,pth,16.82
2021-12-08T21:51:00,pth,15.59
2021-12-08T21:53:00,pth,8.44
2021-12-08T21:54:00,pth,7.21
2021-12-08T21:55:00,pth,15.59
2021-12-08T21:56:00,pth,8.38
2021-12-08T21:59:00,pth,15.59
2021-12-08T22:00:00,pth,15.64
2021-12-08T22:03:00,pth,23.96
2021-12-08T22:06:00,pth,17.99
2021-12-08T22:07:00,pth,19.22
2021-12-08T22:09:00,pth,16.82
2021-12-08T22:12:00,pth,15.59
2021-12-08T22:13:00,pth,16.82
2021-12-08T22:15:00,pth,15.59
2021-12-08T22:17:00,pth,16.82
2021-12-08T22:18:00,pth,8.38
2021-12-08T22:20:00,pth,15.59
2021-12-08T22:22:00,pth,15.64
2021-12-08T22:23:00,pth,8.38
2021-12-08T22:25:00,pth,7.21
2021-12-08T22:27:00,pth,23.96
2021-12-08T22:30:00,pth,8.44
2021-12-08T22:31:00,pth,4.80
2021-12-08T22:33:00,pth,5.98
2021-12-08T22:35:00,pth,4.80
2021-12-08T22:36:00,pth,2.40
2021-12-08T22:39:00,pth,4.80
2021-12-08T22:40:00,pth,5.98
2021-12-08T22:42:00,pth,2.40
2021-12-08T22:43:00,pth,4.80
2021-12-08T22:45:00,pth,2.40
2021-12-08T22:47:00,pth,4.80
2021-12-08T22:49:00,pth,7.21
2021-12-08T22:51:00,pth,5.98
2021-12-08T22:52:00,pth,2.40
2021-12-08T22:54:00,pth,2.40
2021-12-08T22:55:00,pth,4.80
2021-12-08T22:57:00,pth,6.04
2021-12-08T22:59:00,pth,2.40
2021-12-08T23:00:00,pth,3.57
2021-12-08T23:03:00,pth,7.21
2021-12-08T23:05:00,pth,4.80
2021-12-08T23:08:00,pth,4.80
2021-12-08T23:09:00,pth,5.98
2021-12-08T23:11:00,pth,4.80
2021-12-08T23:14:00,pth,4.80
2021-12-08T23:16:00,pth,3.57
2021-12-08T23:18:00,pth,4.80
2021-12-08T23:19:00,pth,2.40
2021-12-08T23:20:00,pth,4.80
2021-12-08T23:22:00,pth,4.80
2021-12-08T23:24:00,pth,4.80
2021-12-08T23:26:00,pth,2.40
2021-12-08T23:27:00,pth,2.40
2021-12-08T23:28:00,pth,4.80
2021-12-08T23:30:00,pth,2.40
2021-12-08T23:31:00,pth,4.80
2021-12-08T23:33:00,pth,2.40
2021-12-08T23:34:00,pth,4.80
2021-12-08T23:36:00,pth,4.80
2021-12-08T23:38:00,pth,2.34
2021-12-08T23:39:00,pth,4.80
2021-12-08T23:41:00,pth,4.80